STARLINK-30141 (57620 NORAD) Tracking and Keplerian Element Data

This shows tracking and keplerian element data for the satellite.

Feedback or suggestion? Click here.




ElementValue
Catalog57620
NameSTARLINK-30141
Epoch Orbit369
Epoch Day238.91667824
Epoch Year2023
RAAN79.2591
Inclination43.001
Eccentricity0.0001844
Argument of Perigee247.1852
Mean Anonmoly28.6271
Mean Motion15.74822435
Decay Rate-0.00737104
L11 57620U 23119U 23238.91667824 -.00737104 00000+0 -52786-2 0 9990
L22 57620 43.0010 79.2591 0001844 247.1852 28.6271 15.74822435 3694



Live tracking and technical data element details for STARLINK-30141 (NORAD 57620). STARLINK-30141 can be tracked NOW for your location showing map with azimuth and elevation plus other details from your city location.







IsCatalogInMostPopularTable: catalog: 57620, numindb: 5
Update: records affected: 1



GetName: 57620 STARLINK-30141

Hit Count: updated at: Tue, 26 Sep 2023 11:40:16 GMT